HST
1 20580U 90037B   25174.91558896  .00004148  00000-0  15150-3 0  9996
2 20580  28.4691 359.3068 0002339 158.7567 201.3125 15.25383683733716
ISS (ZARYA)
1 25544U 98067A   25175.16104992  .00007620  00000-0  14032-3 0  9990
2 25544  51.6364 272.5136 0002157 282.3316  77.7431 15.50212564516241
CXO
1 25867U 99040B   25174.72419316  .00000421  00000-0  00000+0 0  9998
2 25867  49.6806 129.3423 8417193 309.6282   0.0394  0.37805500 27126